Flag for Germany Weather past 2 weeks in Zweibrücken, Rhineland-Palatinate, Germany

Now
90 °F

Passing clouds.


Feels Like: 88 °F
Forecast: 66 / 96 °F
Wind: 7 mph from Southwest

Location: Saarbruecken / Ensheim

Current Time: Jul 4, 2015 at 1:02:14 PM

Latest Report: Jul 4, 2015 at 12:20 PM


Visibility: N/A

Pressure: 30.15 "Hg

Humidity: 33%

Dew point: 57 °F

Location of ZweibrückenLocation

Historic Weather in Zweibrücken — Graph

°F

Zweibrücken temperature yesterday

Maximum temperature yesterday: 93 °F (at 2:50 PM)
Minimum temperature yesterday: 68 °F (at 5:20 AM)
Average temperature yesterday: 82 °F

Past Weeks' High & Low Weather Summary

 TemperatureHumidityPressure
High95 °F (Jul 2, 3:20 PM)100% (Jun 21, 9:50 AM)30.24 "Hg (Jun 21, 9:50 AM)
Low45 °F (Jun 23, 3:20 AM)24% (Jul 1, 4:20 PM)29.74 "Hg (Jun 22, 9:50 PM)
Average66 °F62%30.11 "Hg
* Reported Jun 19 11:20 AM — Jul 4 11:50 AM, Zweibrücken, Weather by CustomWeather, © 2015

Note: Actual official high and low records may vary slightly from our data, if they occured in-between our weather recording intervals... More about our weather records

Advertising

Zweibrücken weather history for previous 24 hours

 ConditionsComfort  
Time TempWeatherWind HumidityBarometerVisibility
11:50 AM
Sat, Jul 4
88 °FSunny.6 mph38%30.15 "Hg10 mi
11:20 AM86 °FPassing clouds.9 mph40%30.15 "HgN/A
10:50 AM84 °FPassing clouds.9 mph40%30.15 "HgN/A
10:20 AM84 °FPassing clouds.9 mph43%30.15 "HgN/A
9:50 AM82 °FPassing clouds.9 mph45%30.15 "HgN/A
9:20 AM81 °FPassing clouds.12 mph45%30.15 "HgN/A
8:50 AM79 °FSunny.14 mph48%30.15 "Hg10 mi
8:20 AM79 °FSunny.13 mph48%30.15 "Hg10 mi
7:50 AM79 °FPassing clouds.9 mph48%30.15 "HgN/A
7:20 AM79 °FSunny.9 mph51%30.15 "Hg10 mi
6:50 AM75 °FSunny.2 mph57%30.12 "Hg10 mi
6:20 AM73 °FClear.2 mph65%30.12 "Hg10 mi
5:50 AM72 °FClear.5 mph73%30.12 "Hg10 mi
5:20 AM72 °FClear.5 mph73%30.12 "Hg10 mi
4:50 AM72 °FClear.3 mph73%30.12 "Hg10 mi
4:20 AM72 °FClear.5 mph73%30.12 "Hg10 mi
3:50 AM72 °FClear.6 mph73%30.12 "Hg10 mi
3:20 AM73 °FClear.6 mph69%30.12 "Hg10 mi
2:50 AM73 °FClear.7 mph69%30.15 "Hg10 mi
2:20 AM73 °FClear.5 mph69%30.15 "Hg10 mi
1:50 AM75 °FClear.6 mph65%30.15 "Hg10 mi
1:20 AM75 °FClear.5 mph65%30.15 "Hg10 mi
12:50 AM75 °FClear.6 mph65%30.15 "Hg10 mi
12:20 AM77 °FClear.6 mph61%30.15 "Hg10 mi
11:50 PM
Fri, Jul 3
77 °FClear.6 mph61%30.15 "Hg10 mi
11:20 PM77 °FClear.6 mph61%30.15 "Hg10 mi
10:50 PM79 °FClear.6 mph58%30.15 "Hg10 mi
10:20 PM81 °FSunny.5 mph54%30.15 "Hg10 mi
9:50 PM84 °FSunny.3 mph45%30.15 "Hg10 mi
9:20 PM86 °FSunny.6 mph43%30.15 "Hg10 mi
8:50 PM88 °FSunny.5 mph40%30.15 "Hg10 mi
8:20 PM91 °FPassing clouds.5 mph32%30.15 "HgN/A
7:50 PM91 °FPassing clouds.3 mph34%30.15 "HgN/A
7:20 PM93 °FPassing clouds.5 mph30%30.18 "HgN/A
6:50 PM93 °FPassing clouds.3 mph30%30.18 "HgN/A
6:20 PM93 °FScattered clouds.5 mph28%30.15 "HgN/A
5:50 PM93 °FScattered clouds.6 mph28%30.18 "HgN/A
5:20 PM93 °FPassing clouds.5 mph28%30.18 "HgN/A
4:50 PM93 °FPassing clouds.5 mph28%30.18 "HgN/A
4:20 PM93 °FSunny.3 mph30%30.21 "Hg10 mi
3:50 PM93 °FPassing clouds.6 mph30%30.21 "HgN/A
3:20 PM93 °FPassing clouds.6 mph30%30.21 "HgN/A
2:50 PM93 °FSunny.3 mph32%30.21 "Hg10 mi
2:20 PM91 °FSunny.5 mph34%30.21 "Hg10 mi
1:50 PM90 °FSunny.3 mph36%30.24 "Hg10 mi
1:20 PM90 °FSunny.5 mph38%30.24 "Hg10 mi
Weather by CustomWeather, © 2015

See weather overviewHow to use our weather pages